TimeHST,TemperatureF,Dew PointF,Humidity,Sea Level PressureIn,VisibilityMPH,Wind Direction,Wind SpeedMPH,Gust SpeedMPH,PrecipitationIn,Events,Conditions,WindDirDegrees,DateUTC
12:56 AM,70.0,63.9,81,30.03,10.0,NE,11.5,-,N/A,,Partly Cloudy,50,2013-06-20 10:56:00
1:56 AM,68.9,63.9,84,30.00,10.0,ENE,11.5,-,N/A,,Clear,70,2013-06-20 11:56:00
2:56 AM,68.9,64.9,87,30.00,10.0,NNE,10.4,-,0.00,Rain,Light Rain,20,2013-06-20 12:56:00
3:12 AM,69.8,66.2,88,30.06,2.0,NE,8.1,-,0.01,Rain,Rain,40,2013-06-20 13:12:00
3:25 AM,68.0,66.2,94,30.06,3.0,NNE,8.1,-,0.02,Rain,Light Rain,20,2013-06-20 13:25:00
3:28 AM,68.0,66.2,94,30.06,3.0,North,5.8,-,0.02,Rain,Light Rain,360,2013-06-20 13:28:00
3:56 AM,68.9,66.9,93,29.99,10.0,ENE,6.9,-,0.02,,Overcast,70,2013-06-20 13:56:00
4:56 AM,68.0,64.4,88,30.05,10.0,NNE,9.2,-,N/A,,Scattered Clouds,30,2013-06-20 14:56:00
5:56 AM,68.0,64.9,90,30.00,10.0,NE,8.1,-,N/A,,Overcast,50,2013-06-20 15:56:00
6:56 AM,70.9,66.9,87,30.02,10.0,NNE,11.5,-,N/A,,Scattered Clouds,20,2013-06-20 16:56:00
7:56 AM,72.0,66.9,84,30.03,10.0,NNE,9.2,-,N/A,,Mostly Cloudy,30,2013-06-20 17:56:00
8:56 AM,79.9,64.9,60,30.02,10.0,ENE,4.6,-,N/A,,Scattered Clouds,60,2013-06-20 18:56:00
9:45 AM,80.6,66.2,61,30.10,10.0,SW,6.9,-,N/A,,Overcast,230,2013-06-20 19:45:00
9:56 AM,79.9,63.9,58,30.03,10.0,SW,9.2,-,N/A,,Overcast,220,2013-06-20 19:56:00
10:56 AM,78.8,64.4,61,30.10,10.0,West,6.9,-,N/A,,Overcast,280,2013-06-20 20:56:00
11:56 AM,77.9,65.8,66,30.03,10.0,NW,4.6,-,0.00,Rain,Light Rain,310,2013-06-20 21:56:00
12:05 PM,82.4,66.2,58,30.08,10.0,NNE,9.2,-,0.00,Rain,Light Rain,20,2013-06-20 22:05:00
12:26 PM,80.6,64.4,58,30.08,10.0,NE,15.0,-,0.00,,Scattered Clouds,40,2013-06-20 22:26:00
12:56 PM,81.0,64.9,58,30.01,10.0,NNE,9.2,-,0.00,,Scattered Clouds,20,2013-06-20 22:56:00
1:56 PM,78.8,66.2,65,30.06,10.0,NNE,12.7,-,N/A,,Overcast,30,2013-06-20 23:56:00
2:39 PM,80.6,66.2,61,30.06,10.0,Variable,4.6,-,N/A,,Mostly Cloudy,0,2013-06-21 00:39:00
2:56 PM,79.0,65.8,64,30.00,10.0,ENE,12.7,-,N/A,,Overcast,60,2013-06-21 00:56:00
3:56 PM,77.9,65.8,66,29.99,10.0,SSW,6.9,-,N/A,,Overcast,210,2013-06-21 01:56:00
4:56 PM,77.0,66.2,69,30.06,10.0,SW,6.9,-,N/A,,Overcast,230,2013-06-21 02:56:00
5:56 PM,73.9,66.9,79,30.01,10.0,NE,12.7,-,0.00,,Mostly Cloudy,40,2013-06-21 03:56:00
6:15 PM,73.4,66.2,78,30.06,10.0,NE,13.8,-,N/A,,Scattered Clouds,40,2013-06-21 04:15:00
6:56 PM,72.9,64.9,76,30.01,10.0,NE,13.8,20.7,N/A,,Clear,40,2013-06-21 04:56:00
7:56 PM,72.0,64.9,78,30.04,10.0,ENE,11.5,-,N/A,,Clear,70,2013-06-21 05:56:00
8:56 PM,70.9,65.8,84,30.04,10.0,NE,13.8,20.7,N/A,,Partly Cloudy,40,2013-06-21 06:56:00
9:56 PM,70.0,64.9,84,30.06,10.0,East,8.1,-,N/A,,Partly Cloudy,100,2013-06-21 07:56:00
10:26 PM,71.6,66.2,83,30.12,10.0,ESE,5.8,-,N/A,,Mostly Cloudy,120,2013-06-21 08:26:00
10:56 PM,71.6,66.2,83,30.12,10.0,NE,9.2,-,N/A,,Overcast,50,2013-06-21 08:56:00
11:05 PM,71.6,66.2,83,30.12,10.0,NNE,8.1,-,N/A,,Mostly Cloudy,30,2013-06-21 09:05:00
11:56 PM,68.9,64.9,87,30.06,10.0,NE,5.8,-,0.00,,Scattered Clouds,40,2013-06-21 09:56:00